Regional Weather Roundup
Issued by NWS

Home | Current Version | Previous Version | Graphics & Text | Print | Product List | Glossary On
Versions: 1 2 3 4 5 6 7 8 9 10 11 12 13 14 15 16 17 18 19 20 21 22 23 24 25 26 27 28 29 30 31 32 33 34 35 36 37 38 39 40 41 42 43 44 45 46 47 48 49 50
917
ASUS43 KBIS 281002
RWRND

NORTH DAKOTA REGIONAL WEATHER ROUNDUP
NATIONAL WEATHER SERVICE BISMARCK ND
400 AM CST TUE FEB 28 2017

NOTE: "FAIR" INDICATES FEW OR NO CLOUDS BELOW 12,000 FEET WITH NO
SIGNIFICANT WEATHER AND/OR OBSTRUCTIONS TO VISIBILITY.


NDZ001>003-009>011-017-281100-
NORTHWEST NORTH DAKOTA

CITY           SKY/WX    TMP DP  RH WIND       PRES   REMARKS
WILLISTON      CLOUDY    11   7  84 E6        29.82F WCI   1
MINOT          CLOUDY     6   2  83 N3        29.88F
MINOT AFB      CLOUDY     5   1  85 SE3       29.88F
$$

NDZ018>021-031>035-040>046-281100-
SOUTHWEST NORTH DAKOTA

CITY           SKY/WX    TMP DP  RH WIND       PRES   REMARKS
BISMARCK       CLOUDY    20  17  88 NE9       29.83F WCI   9
DICKINSON      CLOUDY    12   9  87 NE9       29.73F WCI   0
GARRISON         N/A      6   4  91 N5        29.84F WCI  -3
HETTINGER ARPT CLOUDY    19  17  92 E9        29.74S FOG     WCI   8
$$

NDZ004>008-012>016-024-026-027-054-281100-
NORTHEAST NORTH DAKOTA

CITY           SKY/WX    TMP DP  RH WIND       PRES   REMARKS
GRAND FORKS    CLOUDY    15   7  70 N13       29.93S WCI   1
GRND FRKS AFB  FLURRIES  13   7  78 N15       29.93F WCI  -3
DEVILS LAKE    CLOUDY     6   3  87 N7        29.92F WCI  -6
$$

NDZ022-023-025-028>030-036>039-047>053-281100-
SOUTHEAST NORTH DAKOTA

CITY           SKY/WX    TMP DP  RH WIND       PRES   REMARKS
FARGO          CLOUDY    21  18  88 N14       29.84F WCI   8
JAMESTOWN      FAIR      14  11  87 N12       29.85F WCI   0
$$





USA.gov is the U.S. government's official web portal to all federal, state and local government web resources and services.